Terminal Aerodrome Forecast
Issued by NWS Melbourne, FL

Home | Current Version | Previous Version | Text Only | Print | Product List | Glossary On
Versions: 1 2 3 4 5 6 7 8 9 10 11 12 13 14 15 16 17 18 19 20 21 22 23 24 25 26 27 28 29 30 31 32 33 34 35 36 37 38 39 40 41 42 43 44 45 46 47 48 49 50
000
FTUS42 KMLB 230541
TAFMCO
TAF
KMCO 230541Z 2306/2412 VRB02KT P6SM FEW022 BKN250
     FM231500 21005KT P6SM SCT035 SCT250
     FM231800 22009KT P6SM VCTS SCT040CB BKN080
      TEMPO 2320/2322 3SM TSRA BKN020CB OVC040
     FM240000 22003KT P6SM SCT120 OVC250=

USA.gov is the U.S. government's official web portal to all federal, state and local government web resources and services.